ProjectID,Date,Electric Generation,Electric Utility Import,Facility Electric Load
,YYYY-MM-DD,kW,kW,kW
157,2013-12-09,0.0,,0.0
157,2013-12-10,0.0,,0.0
157,2013-12-11,5.870041666666666,,5.870041666666666
157,2013-12-12,22.859916666666667,,22.859916666666667
157,2013-12-13,14.545083333333332,,14.545083333333332
157,2013-12-14,3.3649166666666663,,3.3649166666666663
157,2013-12-15,0.030125,,0.030125
157,2013-12-16,0.094875,,0.094875
157,2013-12-17,0.025083333333333332,,0.025083333333333332
157,2013-12-18,0.029916666666666664,,0.029916666666666664
157,2013-12-19,0.05504166666666666,,0.05504166666666666
157,2013-12-20,0.025041666666666667,,0.025041666666666667
157,2013-12-21,3.8200000000000003,,3.8200000000000003
157,2013-12-22,6.290041666666667,,6.290041666666667
157,2013-12-23,3.4949583333333334,,3.4949583333333334
157,2013-12-24,35.81491666666667,,35.81491666666667
157,2013-12-25,43.190125,,43.190125
157,2013-12-26,16.524916666666666,,16.524916666666666
157,2013-12-27,24.09,,24.09
157,2013-12-28,34.699999999999996,,34.699999999999996
157,2013-12-29,4.180041666666667,,4.180041666666667
157,2013-12-30,27.630041666666667,,27.630041666666667
157,2013-12-31,27.73991666666667,,27.73991666666667
157,2014-01-01,0.0050416666666666665,,0.0050416666666666665
157,2014-01-02,0.2900416666666667,,0.2900416666666667
157,2014-01-03,3.6649999999999996,,3.6649999999999996
157,2014-01-04,6.180041666666667,,6.180041666666667
157,2014-01-05,16.424958333333333,,16.424958333333333
157,2014-01-06,5.380041666666667,,5.380041666666667
157,2014-01-07,49.68,,49.68
157,2014-01-08,52.46504166666667,,52.46504166666667
157,2014-01-09,50.63995833333333,,50.63995833333333
157,2014-01-10,17.985041666666667,,17.985041666666667
157,2014-01-11,1.8399999999999999,,1.8399999999999999
157,2014-01-12,7.564916666666666,,7.564916666666666
157,2014-01-13,32.175000000000004,,32.175000000000004
157,2014-01-14,3.674958333333333,,3.674958333333333
157,2014-01-15,43.710125,,43.710125
157,2014-01-16,12.379875,,12.379875
157,2014-01-17,43.72508333333334,,43.72508333333334
157,2014-01-18,4.329916666666667,,4.329916666666667
157,2014-01-19,3.200041666666667,,3.200041666666667
157,2014-01-20,3.919916666666667,,3.919916666666667
157,2014-01-21,23.970041666666663,,23.970041666666663
157,2014-01-22,60.350125,,60.350125
157,2014-01-23,47.01983333333334,,47.01983333333334
157,2014-01-24,58.190125,,58.190125
157,2014-01-25,4.389958333333333,,4.389958333333333
157,2014-01-26,12.57,,12.57
157,2014-01-27,7.380041666666667,,7.380041666666667
157,2014-01-28,42.160000000000004,,42.160000000000004
157,2014-01-29,62.49495833333333,,62.49495833333333
157,2014-01-30,65.77504166666667,,65.77504166666667
157,2014-01-31,24.015,,24.015
157,2014-02-01,33.849916666666665,,33.849916666666665
157,2014-02-02,9.855,,9.855
157,2014-02-03,2.9449583333333336,,2.9449583333333336
157,2014-02-04,4.820166666666666,,4.820166666666666
157,2014-02-05,0.034999999999999996,,0.034999999999999996
157,2014-02-06,0.29491666666666666,,0.29491666666666666
157,2014-02-07,0.36508333333333337,,0.36508333333333337
157,2014-02-08,0.17495833333333333,,0.17495833333333333
157,2014-02-09,0.235,,0.235
157,2014-02-10,0.285,,0.285
157,2014-02-11,0.375,,0.375
157,2014-02-12,0.5099583333333334,,0.5099583333333334
157,2014-02-13,0.025041666666666667,,0.025041666666666667
157,2014-02-14,0.029958333333333333,,0.029958333333333333
157,2014-02-15,0.02,,0.02
157,2014-02-16,0.029958333333333333,,0.029958333333333333
157,2014-02-17,0.025083333333333332,,0.025083333333333332
157,2014-02-18,0.024874999999999998,,0.024874999999999998
157,2014-02-19,0.030125,,0.030125
157,2014-02-20,0.024916666666666667,,0.024916666666666667
157,2014-02-21,0.030083333333333333,,0.030083333333333333
157,2014-02-22,0.30504166666666666,,0.30504166666666666
157,2014-02-23,0.215,,0.215
157,2014-02-24,1.0649166666666667,,1.0649166666666667
157,2014-02-25,1.2599583333333333,,1.2599583333333333
157,2014-02-26,2.0600416666666668,,2.0600416666666668
157,2014-02-27,1.5649583333333332,,1.5649583333333332
157,2014-02-28,2.8500833333333335,,2.8500833333333335
157,2014-03-01,0.0,,0.0
157,2014-03-02,2.3499583333333334,,2.3499583333333334
157,2014-03-03,2.3500833333333335,,2.3500833333333335
157,2014-03-04,3.0200416666666663,,3.0200416666666663
157,2014-03-05,1.6949583333333333,,1.6949583333333333
157,2014-03-06,4.805041666666667,,4.805041666666667
157,2014-03-07,5.6699166666666665,,5.6699166666666665
157,2014-03-08,8.349916666666667,,8.349916666666667
157,2014-03-09,26.610041666666664,,26.610041666666664
157,2014-03-10,18.975083333333334,,18.975083333333334
157,2014-03-11,69.43995833333334,,69.43995833333334
157,2014-03-12,11.760083333333334,,11.760083333333334
157,2014-03-13,85.949875,,85.949875
157,2014-03-14,51.239916666666666,,51.239916666666666
157,2014-03-15,54.70016666666667,,54.70016666666667
157,2014-03-16,87.92483333333332,,87.92483333333332
157,2014-03-17,94.0,,94.0
157,2014-03-18,98.39029166666667,,98.39029166666667
157,2014-03-19,39.04979166666667,,39.04979166666667
157,2014-03-20,35.98504166666667,,35.98504166666667
157,2014-03-21,63.48500000000001,,63.48500000000001
157,2014-03-22,71.21487499999999,,71.21487499999999
157,2014-03-23,71.5,,71.5
157,2014-03-24,103.35025,,103.35025
157,2014-03-25,81.13475,,81.13475
157,2014-03-26,82.36525,,82.36525
157,2014-03-27,89.79004166666665,,89.79004166666665
157,2014-03-28,17.534833333333335,,17.534833333333335
157,2014-03-29,45.58495833333333,,45.58495833333333
157,2014-03-30,25.069958333333332,,25.069958333333332
157,2014-03-31,71.80504166666667,,71.80504166666667
157,2014-04-01,56.309875,,56.309875
157,2014-04-02,0.010083333333333333,,0.010083333333333333
157,2014-04-03,0.005208333333333333,,0.005208333333333333
157,2014-04-04,0.0,,0.0
157,2014-04-05,0.0,,0.0
157,2014-04-06,0.0,,0.0
157,2014-04-07,0.0,,0.0
157,2014-04-08,57.90529166666667,,57.90529166666667
157,2014-04-09,99.31995833333333,,99.31995833333333
157,2014-04-10,107.174875,,107.174875
157,2014-04-11,46.805,,46.805
157,2014-04-12,45.754999999999995,,45.754999999999995
157,2014-04-13,0.02,,0.02
157,2014-04-14,0.024999999999999998,,0.024999999999999998
157,2014-04-15,0.01,,0.01
157,2014-04-16,0.0,,0.0
157,2014-04-17,0.0,,0.0
157,2014-04-18,0.0,,0.0
157,2014-04-19,0.0,,0.0
157,2014-04-20,0.0,,0.0
157,2014-04-21,0.0,,0.0
157,2014-04-22,0.0,,0.0
157,2014-04-23,0.0,,0.0
157,2014-04-24,0.0,,0.0
157,2014-04-25,72.71,,72.71
157,2014-04-26,57.074999999999996,,57.074999999999996
157,2014-04-27,46.629999999999995,,46.629999999999995
157,2014-04-28,111.96,,111.96
157,2014-04-29,38.24,,38.24
157,2014-04-30,16.150000000000002,,16.150000000000002
157,2014-05-01,72.605,,72.605
157,2014-05-02,51.76499999999999,,51.76499999999999
157,2014-05-03,69.315,,69.315
157,2014-05-04,55.794999999999995,,55.794999999999995
157,2014-05-05,104.02999999999999,,104.02999999999999
157,2014-05-06,89.685,,89.685
157,2014-05-07,101.85000000000001,,101.85000000000001
157,2014-05-08,71.835,,71.835
157,2014-05-09,26.400000000000002,,26.400000000000002
157,2014-05-10,0.03,,0.03
157,2014-05-11,0.02,,0.02
157,2014-05-12,0.03,,0.03
157,2014-05-13,0.01,,0.01
157,2014-05-14,0.0,,0.0
157,2014-05-15,6.93,,6.93
157,2014-05-16,42.24,,42.24
157,2014-05-17,93.75999999999999,,93.75999999999999
157,2014-05-18,100.58041666666666,,100.58041666666666
157,2014-05-19,89.58,,89.58
157,2014-05-20,113.33458333333334,,113.33458333333334
157,2014-05-21,91.85458333333334,,91.85458333333334
157,2014-05-22,27.710416666666664,,27.710416666666664
157,2014-05-23,34.56,,34.56
157,2014-05-24,67.59,,67.59
157,2014-05-25,106.70041666666667,,106.70041666666667
157,2014-05-26,72.26958333333333,,72.26958333333333
157,2014-05-27,89.765,,89.765
157,2014-05-28,30.625,,30.625
157,2014-05-29,113.75,,113.75
157,2014-05-30,75.91958333333334,,75.91958333333334
157,2014-05-31,99.515,,99.515
157,2014-06-01,114.83041666666666,,114.83041666666666
157,2014-06-02,113.58,,113.58
157,2014-06-03,87.93458333333332,,87.93458333333332
157,2014-06-04,96.01041666666667,,96.01041666666667
157,2014-06-05,71.325,,71.325
157,2014-06-06,84.22541666666667,,84.22541666666667
157,2014-06-07,110.14458333333333,,110.14458333333333
157,2014-06-08,105.52,,105.52
157,2014-06-09,23.365416666666665,,23.365416666666665
157,2014-06-10,70.625,,70.625
157,2014-06-11,23.024583333333336,,23.024583333333336
157,2014-06-12,17.580000000000002,,17.580000000000002
157,2014-06-13,27.630416666666665,,27.630416666666665
157,2014-06-14,88.57458333333334,,88.57458333333334
157,2014-06-15,92.97458333333333,,92.97458333333333
157,2014-06-16,111.85041666666666,,111.85041666666666
157,2014-06-17,105.36,,105.36
157,2014-06-18,64.44458333333334,,64.44458333333334
157,2014-06-19,102.61541666666666,,102.61541666666666
157,2014-06-20,113.24000000000001,,113.24000000000001
157,2014-06-21,110.625,,110.625
157,2014-06-22,110.30041666666666,,110.30041666666666
157,2014-06-23,108.04958333333333,,108.04958333333333
157,2014-06-24,64.86,,64.86
157,2014-06-25,71.865,,71.865
157,2014-06-26,84.03,,84.03
157,2014-06-27,114.88041666666668,,114.88041666666668
157,2014-06-28,103.61458333333333,,103.61458333333333
157,2014-06-29,105.57541666666667,,105.57541666666667
157,2014-06-30,91.14458333333333,,91.14458333333333
157,2014-07-01,107.5,,107.5
157,2014-07-02,53.33958333333334,,53.33958333333334
157,2014-07-03,66.13041666666668,,66.13041666666668
157,2014-07-04,18.66,,18.66
157,2014-07-05,116.66458333333333,,116.66458333333333
157,2014-07-06,114.68041666666666,,114.68041666666666
157,2014-07-07,88.88499999999999,,88.88499999999999
157,2014-07-08,85.205,,85.205
157,2014-07-09,98.395,,98.395
157,2014-07-10,105.56,,105.56
157,2014-07-11,113.27458333333334,,113.27458333333334
157,2014-07-12,55.25541666666667,,55.25541666666667
157,2014-07-13,0.0,,0.0
157,2014-07-14,9.84,,9.84
157,2014-07-15,47.09041666666667,,47.09041666666667
157,2014-07-16,86.17458333333333,,86.17458333333333
157,2014-07-17,79.08,,79.08
157,2014-07-18,106.36,,106.36
157,2014-07-19,56.36958333333333,,56.36958333333333
157,2014-07-20,87.50541666666668,,87.50541666666668
157,2014-07-21,91.19,,91.19
157,2014-07-22,98.21041666666667,,98.21041666666667
157,2014-07-23,93.68916666666667,,93.68916666666667
157,2014-07-24,93.95083333333334,,93.95083333333334
157,2014-07-25,104.45416666666667,,104.45416666666667
157,2014-07-26,82.82041666666667,,82.82041666666667
157,2014-07-27,72.905,,72.905
157,2014-07-28,53.32541666666666,,53.32541666666666
157,2014-07-29,84.345,,84.345
157,2014-07-30,92.98958333333333,,92.98958333333333
157,2014-07-31,75.91041666666666,,75.91041666666666
157,2014-08-01,76.88916666666667,,76.88916666666667
157,2014-08-02,80.71083333333333,,80.71083333333333
157,2014-08-03,76.42458333333333,,76.42458333333333
157,2014-08-04,83.685,,83.685
157,2014-08-05,92.11458333333333,,92.11458333333333
157,2014-08-06,82.39583333333333,,82.39583333333333
157,2014-08-07,82.41416666666667,,82.41416666666667
157,2014-08-08,102.66000000000001,,102.66000000000001
157,2014-08-09,105.42041666666667,,105.42041666666667
157,2014-08-10,103.60541666666667,,103.60541666666667
157,2014-08-11,99.53416666666668,,99.53416666666668
157,2014-08-12,45.885416666666664,,45.885416666666664
157,2014-08-13,31.175833333333333,,31.175833333333333
157,2014-08-14,83.44916666666667,,83.44916666666667
157,2014-08-15,42.165416666666665,,42.165416666666665
157,2014-08-16,83.98958333333333,,83.98958333333333
157,2014-08-17,76.54,,76.54
157,2014-08-18,95.04958333333333,,95.04958333333333
157,2014-08-19,102.685,,102.685
157,2014-08-20,90.44,,90.44
157,2014-08-21,54.96083333333333,,54.96083333333333
157,2014-08-22,23.129166666666666,,23.129166666666666
157,2014-08-23,52.535,,52.535
157,2014-08-24,80.59,,80.59
157,2014-08-25,94.55083333333333,,94.55083333333333
157,2014-08-26,95.08458333333334,,95.08458333333334
157,2014-08-27,64.405,,64.405
157,2014-08-28,82.85000000000001,,82.85000000000001
157,2014-08-29,94.29458333333334,,94.29458333333334
157,2014-08-30,94.91000000000001,,94.91000000000001
157,2014-08-31,45.44541666666667,,45.44541666666667
157,2014-09-01,73.58041666666666,,73.58041666666666
157,2014-09-02,69.26458333333333,,69.26458333333333
157,2014-09-03,87.005,,87.005
157,2014-09-04,78.845,,78.845
157,2014-09-05,90.48458333333333,,90.48458333333333
157,2014-09-06,57.73583333333334,,57.73583333333334
157,2014-09-07,98.55458333333333,,98.55458333333333
157,2014-09-08,83.70958333333333,,83.70958333333333
157,2014-09-09,71.84,,71.84
157,2014-09-10,85.915,,85.915
157,2014-09-11,17.655,,17.655
157,2014-09-12,75.13041666666668,,75.13041666666668
157,2014-09-13,16.989583333333332,,16.989583333333332
157,2014-09-14,93.52083333333333,,93.52083333333333
157,2014-09-15,92.70416666666667,,92.70416666666667
157,2014-09-16,35.73083333333333,,35.73083333333333
157,2014-09-17,79.375,,79.375
157,2014-09-18,75.23958333333333,,75.23958333333333
157,2014-09-19,91.52458333333334,,91.52458333333334
157,2014-09-20,69.70583333333333,,69.70583333333333
157,2014-09-21,75.39458333333333,,75.39458333333333
157,2014-09-22,65.66,,65.66
157,2014-09-23,88.09500000000001,,88.09500000000001
157,2014-09-24,73.83458333333333,,73.83458333333333
157,2014-09-25,42.885416666666664,,42.885416666666664
157,2014-09-26,85.66041666666666,,85.66041666666666
157,2014-09-27,83.64958333333333,,83.64958333333333
157,2014-09-28,62.0,,62.0
157,2014-09-29,37.56,,37.56
157,2014-09-30,48.10541666666666,,48.10541666666666
157,2014-10-01,18.789166666666667,,18.789166666666667
157,2014-10-02,42.845,,42.845
157,2014-10-03,82.48541666666667,,82.48541666666667
157,2014-10-04,6.03,,6.03
157,2014-10-05,84.08458333333333,,84.08458333333333
157,2014-10-06,73.58624999999999,,73.58624999999999
157,2014-10-07,48.104166666666664,,48.104166666666664
157,2014-10-08,62.08041666666667,,62.08041666666667
157,2014-10-09,67.40916666666666,,67.40916666666666
157,2014-10-10,74.65083333333332,,74.65083333333332
157,2014-10-11,50.48458333333334,,50.48458333333334
157,2014-10-12,80.13541666666667,,80.13541666666667
157,2014-10-13,25.449166666666667,,25.449166666666667
157,2014-10-14,29.080416666666665,,29.080416666666665
157,2014-10-15,31.199583333333333,,31.199583333333333
157,2014-10-16,22.110416666666666,,22.110416666666666
157,2014-10-17,67.35958333333333,,67.35958333333333
157,2014-10-18,13.200416666666667,,13.200416666666667
157,2014-10-19,55.19541666666667,,55.19541666666667
157,2014-10-20,33.25,,33.25
157,2014-10-21,8.839583333333334,,8.839583333333334
157,2014-10-22,10.875,,10.875
157,2014-10-23,7.755416666666666,,7.755416666666666
157,2014-10-24,16.649583333333332,,16.649583333333332
157,2014-10-25,63.620000000000005,,63.620000000000005
157,2014-10-26,20.03,,20.03
157,2014-10-27,49.385416666666664,,49.385416666666664
157,2014-10-28,35.54416666666666,,35.54416666666666
157,2014-10-29,6.425833333333333,,6.425833333333333
157,2014-10-30,38.98416666666667,,38.98416666666667
157,2014-10-31,50.135416666666664,,50.135416666666664
157,2014-11-01,14.445416666666667,,14.445416666666667
157,2014-11-02,61.79416666666666,,61.79416666666666
157,2014-11-03,64.88041666666668,,64.88041666666668
157,2014-11-04,40.510416666666664,,40.510416666666664
157,2014-11-05,23.08458333333333,,23.08458333333333
157,2014-11-06,8.635416666666666,,8.635416666666666
157,2014-11-07,19.685,,19.685
157,2014-11-08,53.479166666666664,,53.479166666666664
157,2014-11-09,34.40625,,34.40625
157,2014-11-10,46.334583333333335,,46.334583333333335
157,2014-11-11,19.024583333333332,,19.024583333333332
157,2014-11-12,19.575416666666666,,19.575416666666666
157,2014-11-13,34.9,,34.9
157,2014-11-14,32.24458333333333,,32.24458333333333
157,2014-11-15,56.275,,56.275
157,2014-11-16,13.735416666666666,,13.735416666666666
157,2014-11-17,6.329583333333333,,6.329583333333333
157,2014-11-18,51.95583333333334,,51.95583333333334
157,2014-11-19,56.354166666666664,,56.354166666666664
157,2014-11-20,40.08958333333333,,40.08958333333333
157,2014-11-21,32.32041666666667,,32.32041666666667
157,2014-11-22,40.095,,40.095
157,2014-11-23,34.45458333333333,,34.45458333333333
157,2014-11-24,22.510416666666668,,22.510416666666668
157,2014-11-25,22.700416666666666,,22.700416666666666
157,2014-11-26,0.345,,0.345
157,2014-11-27,0.024583333333333332,,0.024583333333333332
157,2014-11-28,0.04041666666666666,,0.04041666666666666
157,2014-11-29,0.034166666666666665,,0.034166666666666665
157,2014-11-30,0.065,,0.065
157,2014-12-01,8.125,,8.125
157,2014-12-02,34.125,,34.125
157,2014-12-03,9.760416666666666,,9.760416666666666
157,2014-12-04,27.849999999999998,,27.849999999999998
157,2014-12-05,0.0,,0.0
157,2014-12-06,3.7254166666666664,,3.7254166666666664
157,2014-12-07,46.26958333333334,,46.26958333333334
157,2014-12-08,26.19541666666667,,26.19541666666667
157,2014-12-09,2.2095833333333332,,2.2095833333333332
157,2014-12-10,5.869583333333334,,5.869583333333334
157,2014-12-11,0.28541666666666665,,0.28541666666666665
157,2014-12-12,0.44,,0.44
157,2014-12-13,2.2358333333333333,,2.2358333333333333
157,2014-12-14,5.66375,,5.66375
157,2014-12-15,21.660416666666666,,21.660416666666666
157,2014-12-16,5.405,,5.405
157,2014-12-17,6.050416666666667,,6.050416666666667
157,2014-12-18,7.064166666666666,,7.064166666666666
157,2014-12-19,10.105416666666667,,10.105416666666667
157,2014-12-20,10.57,,10.57
157,2014-12-21,5.7749999999999995,,5.7749999999999995
157,2014-12-22,13.409999999999998,,13.409999999999998
157,2014-12-23,5.269583333333333,,5.269583333333333
157,2014-12-24,2.8554166666666667,,2.8554166666666667
157,2014-12-25,11.644583333333335,,11.644583333333335
157,2014-12-26,32.62,,32.62
157,2014-12-27,39.17541666666667,,39.17541666666667
157,2014-12-28,5.945416666666667,,5.945416666666667
157,2014-12-29,11.239583333333334,,11.239583333333334
157,2014-12-30,42.62,,42.62
157,2014-12-31,42.39458333333334,,42.39458333333334
157,2015-01-01,45.51541666666666,,45.51541666666666
157,2015-01-02,14.700416666666667,,14.700416666666667
157,2015-01-03,8.409166666666666,,8.409166666666666
157,2015-01-04,6.730416666666667,,6.730416666666667
157,2015-01-05,42.945,,42.945
157,2015-01-06,10.239583333333334,,10.239583333333334
157,2015-01-07,22.630416666666665,,22.630416666666665
157,2015-01-08,50.375,,50.375
157,2015-01-09,2.2045833333333333,,2.2045833333333333
157,2015-01-10,6.315,,6.315
157,2015-01-11,1.7058333333333333,,1.7058333333333333
157,2015-01-12,0.44,,0.44
157,2015-01-13,15.289166666666667,,15.289166666666667
157,2015-01-14,13.594999999999999,,13.594999999999999
157,2015-01-15,31.035,,31.035
157,2015-01-16,25.075416666666666,,25.075416666666666
157,2015-01-17,47.88958333333333,,47.88958333333333
157,2015-01-18,5.885416666666667,,5.885416666666667
157,2015-01-19,10.364583333333334,,10.364583333333334
157,2015-01-20,46.05083333333334,,46.05083333333334
157,2015-01-21,28.839583333333334,,28.839583333333334
157,2015-01-22,31.674583333333334,,31.674583333333334
157,2015-01-23,56.435,,56.435
157,2015-01-24,0.47500000000000003,,0.47500000000000003
157,2015-01-25,4.415416666666666,,4.415416666666666
157,2015-01-26,2.4895833333333335,,2.4895833333333335
157,2015-01-27,1.345,,1.345
157,2015-01-28,15.330833333333333,,15.330833333333333
157,2015-01-29,16.449166666666667,,16.449166666666667
157,2015-01-30,0.8554166666666667,,0.8554166666666667
157,2015-01-31,5.264583333333333,,5.264583333333333
157,2015-02-01,12.82,,12.82
157,2015-02-02,0.024999999999999998,,0.024999999999999998
157,2015-02-03,0.24583333333333335,,0.24583333333333335
157,2015-02-04,0.07458333333333333,,0.07458333333333333
157,2015-02-05,3.7445833333333334,,3.7445833333333334
157,2015-02-06,7.235833333333333,,7.235833333333333
157,2015-02-07,2.7445833333333334,,2.7445833333333334
157,2015-02-08,0.7200000000000001,,0.7200000000000001
157,2015-02-09,0.024999999999999998,,0.024999999999999998
157,2015-02-10,0.08041666666666666,,0.08041666666666666
157,2015-02-11,0.11458333333333333,,0.11458333333333333
157,2015-02-12,0.044583333333333336,,0.044583333333333336
157,2015-02-13,0.17041666666666666,,0.17041666666666666
157,2015-02-14,0.04041666666666666,,0.04041666666666666
157,2015-02-15,0.8891666666666667,,0.8891666666666667
157,2015-02-16,2.4804166666666667,,2.4804166666666667
157,2015-02-17,3.0549999999999997,,3.0549999999999997
157,2015-02-18,9.524583333333334,,9.524583333333334
157,2015-02-19,0.005416666666666667,,0.005416666666666667
157,2015-02-20,17.41541666666667,,17.41541666666667
157,2015-02-21,5.435,,5.435
157,2015-02-22,9.195416666666667,,9.195416666666667
157,2015-02-23,27.285,,27.285
157,2015-02-24,26.014166666666668,,26.014166666666668
157,2015-02-25,38.12,,38.12
157,2015-02-26,16.330833333333334,,16.330833333333334
157,2015-02-27,46.884166666666665,,46.884166666666665
157,2015-02-28,48.67541666666667,,48.67541666666667
157,2015-03-01,19.820416666666667,,19.820416666666667
157,2015-03-02,19.804583333333333,,19.804583333333333
157,2015-03-03,24.010416666666668,,24.010416666666668
157,2015-03-04,9.159166666666666,,9.159166666666666
157,2015-03-05,11.13,,11.13
157,2015-03-06,56.065,,56.065
157,2015-03-07,46.82583333333333,,46.82583333333333
157,2015-03-08,36.07,,36.07
157,2015-03-09,57.739583333333336,,57.739583333333336
157,2015-03-10,41.760416666666664,,41.760416666666664
157,2015-03-11,73.36458333333333,,73.36458333333333
157,2015-03-12,95.01458333333333,,95.01458333333333
157,2015-03-13,79.70583333333333,,79.70583333333333
157,2015-03-14,11.434583333333334,,11.434583333333334
157,2015-03-15,16.135416666666668,,16.135416666666668
157,2015-03-16,59.76958333333334,,59.76958333333334
157,2015-03-17,35.88041666666667,,35.88041666666667
157,2015-03-18,84.89458333333333,,84.89458333333333
157,2015-03-19,99.86958333333332,,99.86958333333332
157,2015-03-20,18.390833333333333,,18.390833333333333
157,2015-03-21,25.829166666666666,,25.829166666666666
157,2015-03-22,97.815,,97.815
157,2015-03-23,102.055,,102.055
157,2015-03-24,93.48541666666667,,93.48541666666667
157,2015-03-25,67.85958333333333,,67.85958333333333
157,2015-03-26,19.425833333333333,,19.425833333333333
157,2015-03-27,45.83958333333334,,45.83958333333334
157,2015-03-28,30.734583333333333,,30.734583333333333
157,2015-03-29,103.64041666666667,,103.64041666666667
157,2015-03-30,27.37,,27.37
157,2015-03-31,53.989583333333336,,53.989583333333336
157,2015-04-01,102.58583333333333,,102.58583333333333
157,2015-04-02,84.54416666666667,,84.54416666666667
157,2015-04-03,33.545833333333334,,33.545833333333334
157,2015-04-04,78.51958333333333,,78.51958333333333
157,2015-04-05,29.035,,29.035
157,2015-04-06,88.28500000000001,,88.28500000000001
157,2015-04-07,14.665416666666667,,14.665416666666667
157,2015-04-08,23.454583333333332,,23.454583333333332
157,2015-04-09,23.985416666666666,,23.985416666666666
157,2015-04-10,35.19958333333333,,35.19958333333333
157,2015-04-11,71.45958333333333,,71.45958333333333
157,2015-04-12,105.10000000000001,,105.10000000000001
157,2015-04-13,94.23458333333333,,94.23458333333333
157,2015-04-14,65.95041666666667,,65.95041666666667
157,2015-04-15,107.90625,,107.90625
157,2015-04-16,103.23458333333333,,103.23458333333333
157,2015-04-17,34.739583333333336,,34.739583333333336
157,2015-04-18,87.96583333333332,,87.96583333333332
157,2015-04-19,102.63291666666667,,102.63291666666667
157,2015-04-20,11.27625,,11.27625
157,2015-04-21,62.854166666666664,,62.854166666666664
157,2015-04-22,56.802083333333336,,56.802083333333336
157,2015-04-23,63.53375,,63.53375
157,2015-04-24,40.635416666666664,,40.635416666666664
157,2015-04-25,109.59375,,109.59375
157,2015-04-26,68.84625,,68.84625
157,2015-04-27,54.90875,,54.90875